FW6883 Weather Reports


Display with metric or nautical units.
time (UTC)temp
F
wind
direction
speed
MPH
gust
MPH
rain 1hr
in
rain 24hr
in
rain mn
in
humidity
%
barometer
mb
20260905144602 64 309 0.0 5.0 0.00 0.00 0.00 14 1007.1
20260905143103 64 117 0.0 4.0 0.00 0.00 0.00 15 1007.2
20260905141550 61 89 0.0 3.0 0.00 0.00 0.00 16 1007.1
20260905140048 61 304 3.0 10.0 0.00 0.00 0.00 17 1006.8
20260905134543 60 157 0.0 4.0 0.00 0.00 0.00 16 1006.7
20260905133042 60 176 1.0 5.0 0.00 0.00 0.00 15 1006.6
20260905131539 60 360 1.0 6.0 0.00 0.00 0.00 15 1006.4
20260905130037 60 151 1.0 8.0 0.00 0.00 0.00 15 1005.9
20260905124536 60 229 1.0 6.0 0.00 0.00 0.00 12 1005.9
20260905123038 60 160 0.0 5.0 0.00 0.00 0.00 12 1005.9
20260905121537 60 268 2.0 6.0 0.00 0.00 0.00 16 1005.7
20260905120032 59 183 1.0 4.0 0.00 0.00 0.00 12 1005.5
20260905114527 59 181 0.0 3.0 0.00 0.00 0.00 16 1005.9
20260905113025 60 145 1.0 2.0 0.00 0.00 0.00 20 1005.8
20260905111523 60 294 0.0 4.0 0.00 0.00 0.00 14 1005.6
20260905110018 59 214 1.0 4.0 0.00 0.00 0.00 17 1005.9
20260905104520 59 70 0.0 1.0 0.00 0.00 0.00 23 1006.0
20260905103015 60 260 1.0 2.0 0.00 0.00 0.00 22 1005.9
20260905101512 59 46 0.0 1.0 0.00 0.00 0.00 23 1005.9
20260905100009 60 311 0.0 3.0 0.00 0.00 0.00 21 1006.0
20260905094507 60 188 0.0 3.0 0.00 0.00 0.00 21 1006.0
20260905093004 60 271 1.0 2.0 0.00 0.00 0.00 22 1006.0
20260905091501 59 156 0.0 3.0 0.00 0.00 0.00 21 1006.2
20260905090058 59 264 0.0 3.0 0.00 0.00 0.00 23 1006.2
20260905084605 59 242 1.0 5.0 0.00 0.00 0.00 23 1006.3
20260905083153 59 247 1.0 3.0 0.00 0.00 0.00 24 1006.4
20260905081550 59 76 0.0 2.0 0.00 0.00 0.00 26 1006.7
20260905074556 59 160 0.0 3.0 0.00 0.00 0.00 27 1006.7
20260905073042 59 68 0.0 3.0 0.00 0.00 0.00 26 1006.8
20260905071545 60 274 0.0 4.0 0.00 0.00 0.00 25 1006.6
20260905070032 59 166 1.0 3.0 0.00 0.00 0.00 26 1006.4
20260905064531 59 127 0.0 2.0 0.00 0.00 0.00 26 1006.5
20260905063028 59 252 1.0 6.0 0.00 0.00 0.00 27 1006.3
20260905061531 59 174 1.0 3.0 0.00 0.00 0.00 27 1006.2
20260905060046 58 10 0.0 1.0 0.00 0.00 0.00 29 1006.1
20260905054525 59 9 1.0 3.0 0.00 0.00 0.00 29 1006.2
20260905053020 59 17 0.0 2.0 0.00 0.00 0.00 30 1006.1
20260905051529 58 320 0.0 1.0 0.00 0.00 0.00 30 1006.0
20260905050017 59 272 1.0 3.0 0.00 0.00 0.00 31 1006.1
20260905044515 59 328 1.0 2.0 0.00 0.00 0.00 31 1006.0
20260905043017 59 316 0.0 4.0 0.00 0.00 0.00 30 1005.8
20260905041510 59 287 0.0 1.0 0.00 0.00 0.00 28 1005.7
20260905040009 59 266 1.0 3.0 0.00 0.00 0.00 29 1005.7
20260905034507 59 167 0.0 1.0 0.00 0.00 0.00 30 1005.7
20260905033005 59 167 0.0 1.0 0.00 0.00 0.00 29 1005.6
20260905031508 59 110 0.0 0.0 0.00 0.00 0.00 33 1005.4
20260905030002 59 107 0.0 0.0 0.00 0.00 0.00 32 1005.1
20260905024609 59 101 0.0 1.0 0.00 0.00 0.00 33 1004.7
20260905023059 59 103 0.0 1.0 0.00 0.00 0.00 35 1004.7
20260905021608 61 103 0.0 1.0 0.00 0.00 0.00 39 1004.9
20260905020055 62 103 1.0 4.0 0.00 0.00 0.00 42 1004.8
20260905014553 64 100 0.0 3.0 0.00 0.00 0.00 38 1004.9
20260905013113 63 93 0.0 5.0 0.00 0.00 0.00 42 1005.0
20260905011548 63 100 2.0 6.0 0.00 0.00 0.00 41 1005.1
20260905010054 63 99 4.0 7.0 0.00 0.00 0.00 42 1005.1
20260905004546 64 90 3.0 9.0 0.00 0.00 0.00 41 1005.2
20260905003043 65 105 3.0 7.0 0.00 0.00 0.00 38 1005.1
20260905001541 65 108 2.0 6.0 0.00 0.00 0.00 41 1005.1
20260905000039 65 120 3.0 8.0 0.00 0.00 0.00 41 1005.2
20260904234541 64 75 4.0 10.0 0.00 0.00 0.00 38 1005.1
20260904233035 64 92 4.0 10.0 0.00 0.00 0.00 40 1005.4
20260904231532 65 90 5.0 11.0 0.00 0.00 0.00 35 1005.4
20260904230042 66 104 3.0 7.0 0.00 0.00 0.00 35 1005.2
20260904224533 66 101 3.0 10.0 0.00 0.00 0.00 35 1005.5
20260904223029 66 82 3.0 9.0 0.00 0.00 0.00 36 1005.5
20260904221525 66 109 4.0 12.0 0.00 0.00 0.00 33 1005.6
20260904220023 69 72 3.0 6.0 0.00 0.00 0.00 33 1005.8
20260904214521 69 63 4.0 8.0 0.00 0.00 0.00 30 1005.9
20260904213018 69 77 4.0 8.0 0.00 0.00 0.00 32 1006.0
20260904211516 70 14 3.0 7.0 0.00 0.00 0.00 27 1006.2
20260904210015 67 13 3.0 12.0 0.00 0.00 0.00 29 1006.2
20260904204510 68 321 6.0 12.0 0.00 0.00 0.00 31 1006.1
20260904203010 67 347 6.0 11.0 0.00 0.00 0.00 31 1005.9
20260904201505 68 355 5.0 11.0 0.00 0.00 0.00 30 1006.0
20260904200011 69 65 2.0 11.0 0.00 0.00 0.00 25 1006.2
20260904194603 68 44 5.0 9.0 0.00 0.00 0.00 28 1006.3
20260904193057 68 356 5.0 11.0 0.00 0.00 0.00 22 1006.3
20260904191554 68 324 6.0 10.0 0.00 0.00 0.00 21 1006.2
20260904190052 69 302 4.0 9.0 0.00 0.00 0.00 23 1006.4
20260904184553 69 65 3.0 6.0 0.00 0.00 0.00 23 1006.4
20260904183045 67 81 3.0 8.0 0.00 0.00 0.00 25 1006.5
20260904181542 66 82 0.0 7.0 0.00 0.00 0.00 22 1006.4
20260904180040 65 98 1.0 7.0 0.00 0.00 0.00 20 1006.4
20260904174536 66 81 1.0 5.0 0.00 0.00 0.00 24 1006.3
20260904173033 65 91 1.0 6.0 0.00 0.00 0.00 23 1006.3
20260904171557 65 94 1.0 9.0 0.00 0.00 0.00 20 1006.1
20260904170027 65 108 2.0 5.0 0.00 0.00 0.00 20 1006.0
20260904164523 64 82 1.0 6.0 0.00 0.00 0.00 25 1005.8
20260904163038 64 90 1.0 5.0 0.00 0.00 0.00 24 1005.5
20260904161515 63 79 3.0 5.0 0.00 0.00 0.00 27 1005.5
20260904160013 63 93 0.0 4.0 0.00 0.00 0.00 29 1005.3
20260904154509 62 103 0.0 2.0 0.00 0.00 0.00 30 1005.1
20260904153007 61 81 1.0 3.0 0.00 0.00 0.00 31 1005.2
20260904151601 61 105 0.0 2.0 0.00 0.00 0.00 31 1005.4
20260904150056 60 105 1.0 4.0 0.00 0.00 0.00 33 1005.4